Lexington Weather

Lexington, Massachusetts, USA

43°F
9/20/2020 10:43pm 
  • Lexington Conditions: Clear
  • Temperature: 43.2°F / 6.2°CColder 1.4°F than last hour.
  • Dew Point: 37.0°FDecreased 1.1°Fsince last hour.
  • Relative Humidity: 79%Increased 1.0% since last hour.
  • Wind: Calm, 10-min avg: Calm, gust: None
  • Barometer: 30.53 in Steady
  • Visibility: 10 miles
  • Rain Today: 0.00 in
  •   
Southeast Middlesex County - Special Weather Statement - Special Weather Statement
 - SEE ALL NEARBY ALERTS -

Regional Weather Roundup
for Boston / Norton, MA

        
000
ASUS41 KBOX 161704
RWRBOX

REGIONAL WEATHER ROUNDUP
NATIONAL WEATHER SERVICE BOSTON/NORTON MA
100 PM EDT WED SEP 16 2020

NOTE:  "FAIR" INDICATES FEW OR NO CLOUDS BELOW 12,000 FEET WITH NO 
SIGNIFICANT WEATHER AND/OR OBSTRUCTIONS TO VISIBILITY.

MAZALL-161800-
EASTERN MASSACHUSETTS
  
CITY           SKY/WX    TMP DP  RH WIND       PRES   REMARKS
BOSTON         PTSUNNY   71  50  47 S20G26    30.17F                  
BEVERLY        SUNNY     72  51  47 SW18G25   30.16F                  
LAWRENCE       SUNNY     70  53  54 SW17G24   30.17F                  
BEDFORD        SUNNY     71  51  49 SW15G23   30.16F                  
BLUE HILL        N/A     70  51  51 SW17G23   30.18F                  
NORWOOD        SUNNY     72  51  47 SW12G24   30.18F                  
MARSHFIELD     SUNNY     72  54  53 S16G24    30.18F                  
PLYMOUTH       SUNNY     70  53  54 SW16G30   30.21F                  
TAUNTON        SUNNY     71  53  52 S10G22    30.21F                  
NEW BEDFORD    PTSUNNY   71  54  54 SW15G23   30.22F                  
$$

MAZALL-161800-
CAPE COD AND THE ISLANDS
  
CITY           SKY/WX    TMP DP  RH WIND       PRES   REMARKS
FALMOUTH       MOSUNNY   70  52  52 SW17G25   30.24F                  
HYANNIS        SUNNY     69  54  58 S18G29    30.22F                  
CHATHAM        MOSUNNY   71  56  58 SW10G22   30.25F                  
PROVINCETOWN   SUNNY     69  57  65 SW17      30.21F                  
NANTUCKET      SUNNY     68  56  65 S14       30.26F                  
MARTHAS VNYRD  PTSUNNY   70  54  56 SW14      30.25S                  
$$
 
MAZALL-161800-
CENTRAL AND WESTERN MASSACHUSETTS
  
CITY           SKY/WX    TMP DP  RH WIND       PRES   REMARKS
WORCESTER      SUNNY     67  51  56 SW10G21   30.19F                  
FITCHBURG      SUNNY     71  48  43 S16G23    30.17F                  
ORANGE         SUNNY     69  47  45 SW14G23   30.18F                  
SPRINGFIELD    NOT AVBL                                               
WESTFIELD      SUNNY     71  49  45 SW15      30.17F                  
NORTH ADAMS    SUNNY     68  47  46 VRB3      30.15F                  
PITTSFIELD     SUNNY     66  47  50 S12G18    30.16F                  
$$
 
RIZALL-161800-
RHODE ISLAND
  
CITY           SKY/WX    TMP DP  RH WIND       PRES   REMARKS
PROVIDENCE     PTSUNNY   71  53  52 SW16G22   30.22F                  
NEWPORT        PTSUNNY   69  54  58 SW12G22   30.23F                  
BLOCK ISLAND   CLOUDY    69  53  56 SW16      30.25F                  
SMITHFIELD     SUNNY     70  54  56 SW9G16    30.21F                  
WESTERLY       MOSUNNY   69  52  54 S12       30.24F                  
$$
 
CTZALL-161800-
CONNECTICUT
  
CITY           SKY/WX    TMP DP  RH WIND       PRES   REMARKS
BRADLEY INTL   PTSUNNY   72  50  45 SW9       30.18F                  
HARTFORD       MOSUNNY   72  51  47 S13G21    30.19F                  
BRIDGEPORT     SUNNY     70  56  61 SW8       30.22F                  
DANBURY        MOSUNNY   68  53  58 SW9       30.22F                  
GROTON         PTSUNNY   69  55  60 SW13      30.23F                  
NEW HAVEN      MOSUNNY   70  59  68 VRB6      30.22F                  
CHESTER        NOT AVBL                                               
MERIDEN        PTSUNNY   69  52  54 S13G20    30.21F                  
WILLIMANTIC    SUNNY     71  52  50 S13G21    30.21F                  
OXFORD         MOSUNNY   67  54  63 S12G21    30.22F                  
$$

MEZ002-015-021-024-NHZ003-005-008-011-012-014-VTZ005-008-161800-
NORTHERN NEW ENGLAND
  
CITY           SKY/WX    TMP DP  RH WIND       PRES   REMARKS
PORTLAND ME    SUNNY     72  48  42 S13G22    30.11F                  
BANGOR ME      MOSUNNY   71  46  40 S15G26    30.05F                  
CONCORD NH     SUNNY     73  42  32 SW12      30.13F                  
MANCHESTER NH  MOSUNNY   72  45  37 SW10      30.13F                  
NASHUA NH      SUNNY     71  49  45 SW9       30.16F                  
PORTSMOUTH NH  SUNNY     71  49  46 SW12G20   30.13F                  
JAFFREY NH     SUNNY     67  45  45 S14G22    30.17F                  
KEENE NH       SUNNY     68  47  46 S13       30.15F                  
BURLINGTON VT  PTSUNNY   68  42  38 S20G33    30.01F                  
MT. WASHINGTON CLOUDY    52  32  46 W39G46      N/A                   
$$

NYZ052-076-161800-
EASTERN NEW YORK
  
CITY           SKY/WX    TMP DP  RH WIND       PRES   REMARKS
ALBANY         PTSUNNY   64  48  56 S13       30.14F                  
NEW YORK CITY  CLOUDY    71  51  49 SW10G18   30.21F                  
$$
 
ANZALL-161800-
MARINE OBSERVATIONS
  
STATION/POSITION TIME  TEMP    WIND        PRES    VSBY  WAVE
                       AIR SEA DIR/SP/G                  HT/PER
                 (UTC) (F)     (DEG/KT/KT) (MB)    (MI)  (FT/S)
BOSTON BUOY      1550   65 64  200/ 16/ 19 1021.6          3/ 3
BUZZARDS BAY     1600          220/ 17/ 18 1025.2F
NANTUCKET SOUND  1650      70  210/ 16/ 19   N/A           2/ 3
MASS BAY-STELLWA 1604   63     240/ 16/ 17 1020.3F  1 7/8  3/ 4
ISLE OF SHOALS   1600   63     220/ 20/ 22 1021.2F
S OF BLOCK IS    1626      70                N/A           3/11
$$

......................KEY.........................
  SKY/WX - SKY CONDITION/PRESENT WEATHER
  TMP    - TEMPERATURE IN FAHRENHEIT
  DWPT   - DEWPOINT IN FAHRENHEIT
  RH     - RELATIVE HUMIDITY IN PERCENT
  WIND   - DIRECTION AND SPEED IN MPH
  PRES   - MEAN SEA LEVEL PRESSURE IN INCHES OF HG
  WCI    - WIND CHILL INDEX
  VSB    - VISIBILITY IN MILES
  HX     - HEAT INDEX
  TC     - TEMPERATURE IN CELSIUS
  VRB    - VARIABLE WIND DIRECTION
  N/A    - NOT AVAILABLE
  
      

Other recent Regional Weather Roundups

Sun Sep 20, 10:04pm

Sun Sep 20, 9:04pm

Sun Sep 20, 8:05pm

Sun Sep 20, 7:04pm

Sun Sep 20, 6:04pm

Sun Sep 20, 5:04pm

Sun Sep 20, 4:04pm

Sun Sep 20, 3:05pm

Sun Sep 20, 2:05pm

Sun Sep 20, 1:04pm

Sun Sep 20, 12:04pm

Sun Sep 20, 11:04am

Sun Sep 20, 10:04am

Sun Sep 20, 9:04am

Sun Sep 20, 8:04am

Sun Sep 20, 7:04am

Sun Sep 20, 6:04am

Sun Sep 20, 5:04am

Sun Sep 20, 4:04am

Sun Sep 20, 3:05am

Sun Sep 20, 2:04am

Sun Sep 20, 1:04am

Sun Sep 20, 12:04am

Sat Sep 19, 11:04pm

Sat Sep 19, 10:04pm

Sat Sep 19, 9:04pm

Sat Sep 19, 8:05pm

Sat Sep 19, 7:04pm

Sat Sep 19, 6:05pm

Sat Sep 19, 5:04pm

Sat Sep 19, 4:04pm

Sat Sep 19, 3:04pm

Sat Sep 19, 2:04pm

Sat Sep 19, 1:05pm

Sat Sep 19, 12:04pm

Sat Sep 19, 11:04am

Sat Sep 19, 10:04am

Sat Sep 19, 9:05am

Sat Sep 19, 8:04am

Sat Sep 19, 7:04am

Sat Sep 19, 6:04am

Sat Sep 19, 5:04am

Sat Sep 19, 4:04am

Sat Sep 19, 3:04am

Sat Sep 19, 2:04am

Sat Sep 19, 1:04am

Sat Sep 19, 12:04am

Fri Sep 18, 11:05pm

Fri Sep 18, 10:04pm

Fri Sep 18, 9:04pm

Fri Sep 18, 8:04pm

Fri Sep 18, 7:04pm

Fri Sep 18, 6:04pm

Fri Sep 18, 5:05pm

Fri Sep 18, 4:04pm

Fri Sep 18, 3:05pm

Fri Sep 18, 2:04pm

Fri Sep 18, 1:04pm

Fri Sep 18, 12:04pm

Fri Sep 18, 11:05am

Fri Sep 18, 10:05am

Fri Sep 18, 9:04am

Fri Sep 18, 8:04am

Fri Sep 18, 7:04am

Fri Sep 18, 6:04am

Fri Sep 18, 5:04am

Fri Sep 18, 4:04am

Fri Sep 18, 3:04am

Fri Sep 18, 2:04am

Fri Sep 18, 1:04am

Fri Sep 18, 12:04am

Thu Sep 17, 11:05pm

Thu Sep 17, 10:04pm

Thu Sep 17, 9:04pm

Thu Sep 17, 8:05pm

Thu Sep 17, 7:04pm

Thu Sep 17, 6:04pm

Thu Sep 17, 5:04pm

Thu Sep 17, 4:04pm

Thu Sep 17, 3:05pm

Thu Sep 17, 2:04pm

Thu Sep 17, 1:04pm

Thu Sep 17, 12:04pm

Thu Sep 17, 11:04am

Thu Sep 17, 10:04am

Thu Sep 17, 9:04am

Thu Sep 17, 8:04am

Thu Sep 17, 7:04am

Thu Sep 17, 6:04am

Thu Sep 17, 5:04am

Thu Sep 17, 4:04am

Thu Sep 17, 3:04am

Thu Sep 17, 2:05am

Thu Sep 17, 1:05am

Thu Sep 17, 12:04am

Wed Sep 16, 11:04pm

Wed Sep 16, 10:04pm

Wed Sep 16, 9:04pm

Wed Sep 16, 8:05pm

Wed Sep 16, 7:04pm

Wed Sep 16, 6:04pm

Wed Sep 16, 5:04pm

Wed Sep 16, 4:04pm

Wed Sep 16, 3:04pm

Wed Sep 16, 2:04pm

Wed Sep 16, 12:04pm

Wed Sep 16, 11:04am

Wed Sep 16, 10:04am

Wed Sep 16, 9:04am

Wed Sep 16, 8:04am

Wed Sep 16, 7:04am

Wed Sep 16, 6:04am

Wed Sep 16, 5:04am

Wed Sep 16, 4:04am

Wed Sep 16, 3:04am

Wed Sep 16, 2:04am

Wed Sep 16, 1:04am

Wed Sep 16, 12:05am

Tue Sep 15, 11:04pm

Tue Sep 15, 10:04pm

Tue Sep 15, 9:04pm

Tue Sep 15, 8:04pm

Tue Sep 15, 7:04pm

Tue Sep 15, 6:04pm

Tue Sep 15, 5:04pm

Tue Sep 15, 4:05pm

Tue Sep 15, 3:04pm

Tue Sep 15, 2:04pm

Tue Sep 15, 1:04pm

Tue Sep 15, 12:04pm

Tue Sep 15, 11:04am

Tue Sep 15, 10:04am

Tue Sep 15, 9:04am

Tue Sep 15, 8:04am

Tue Sep 15, 7:04am

Tue Sep 15, 6:04am

Tue Sep 15, 5:04am

Tue Sep 15, 4:04am

Tue Sep 15, 3:04am

Tue Sep 15, 2:04am

Tue Sep 15, 1:04am

Tue Sep 15, 12:05am

Mon Sep 14, 11:04pm

Mon Sep 14, 10:04pm

Mon Sep 14, 9:04pm

Mon Sep 14, 8:04pm

Mon Sep 14, 7:04pm

Mon Sep 14, 6:04pm

Mon Sep 14, 5:04pm

Mon Sep 14, 4:05pm

Mon Sep 14, 3:04pm

Mon Sep 14, 2:05pm

Mon Sep 14, 1:04pm

Mon Sep 14, 12:04pm

Mon Sep 14, 11:04am

Mon Sep 14, 10:05am

Mon Sep 14, 9:04am

Mon Sep 14, 8:04am

Mon Sep 14, 7:04am

Mon Sep 14, 6:04am

Mon Sep 14, 5:04am

Mon Sep 14, 4:04am

Mon Sep 14, 3:04am

Mon Sep 14, 2:04am

Mon Sep 14, 1:04am

Mon Sep 14, 12:04am

Sun Sep 13, 11:05pm

Meta data:

ID: 8045b92b-57b5-4cf0-b963-a94fc2194095
Link: https://api.weather.gov/products/8045b92b-57b5-4cf0-b963-a94fc2194095